This is the latest recevied weather packets stored in our database for station/object KM8V-8. If no packets are shown the sender has not sent any weather packets the latest 10 day(s).
| Time | Temp. | Humidity | Pressure | Rain* | Wind** | Luminosity | Snow |
|---|---|---|---|---|---|---|---|
| 1777562722 | 8.33° C | 76% | 1014.2 hPa | 0 mm | - | 425 W/m² | - |
| 1777562417 | 7.78° C | 77% | 1014.2 hPa | 0 mm | - | 481 W/m² | - |
| 1777562117 | 7.78° C | 76% | 1014.2 hPa | 0 mm | - | 377 W/m² | - |
| 1777561517 | 7.78° C | 77% | 1014.2 hPa | 0 mm | - | 339 W/m² | - |
| 1777561217 | 7.78° C | 77% | 1014.1 hPa | 0 mm | - | 310 W/m² | - |
| 1777558818 | 7.78° C | 77% | 1013.7 hPa | 0 mm | - | 299 W/m² | - |
| 1777558218 | 7.78° C | 78% | 1013.6 hPa | 0 mm | - | 374 W/m² | - |
| 1777557918 | 8.33° C | 77% | 1013.6 hPa | 0 mm | - | 334 W/m² | - |
| 1777557631 | 8.33° C | 78% | 1013.6 hPa | 0 mm | - | 472 W/m² | - |
| 1777557318 | 7.78° C | 79% | 1013.5 hPa | 0 mm | - | 541 W/m² | - |
| 1777556730 | 7.78° C | 78% | 1013.5 hPa | 0 mm | - | 415 W/m² | - |
| 1777555530 | 7.22° C | 82% | 1013.4 hPa | 0 mm | - | 403 W/m² | - |
| 1777554920 | 7.22° C | 83% | 1013.3 hPa | 0 mm | - | 249 W/m² | - |
| 1777554618 | 6.67° C | 84% | 1013.3 hPa | 0 mm | - | 247 W/m² | - |
| 1777554359 | 6.67° C | 85% | 1013.2 hPa | 0 mm | - | 276 W/m² | - |
| 1777554059 | 6.67° C | 85% | 1013.2 hPa | 0 mm | - | 166 W/m² | - |
| 1777553759 | 6.67° C | 84% | 1013.3 hPa | 0 mm | - | 140 W/m² | - |
| 1777553459 | 6.67° C | 85% | 1013.2 hPa | 0 mm | - | 153 W/m² | - |
| 1777553159 | 6.67° C | 86% | 1013.2 hPa | 0 mm | - | 172 W/m² | - |
| 1777552559 | 6.11° C | 89% | 1013.1 hPa | 0 mm | - | 297 W/m² | - |
| 1777552259 | 6.11° C | 91% | 1013.2 hPa | 0 mm | - | 304 W/m² | - |
| 1777551960 | 5.56° C | 92% | 1013.3 hPa | 0 mm | - | 196 W/m² | - |
| 1777551660 | 5.56° C | 93% | 1013.3 hPa | 0 mm | - | 146 W/m² | - |
| 1777525544 | 6.11° C | 99% | 1011.9 hPa | 0.76 mm | - | 0 W/m² | - |
| 1777525244 | 6.11° C | 99% | 1011.9 hPa | 0.76 mm | - | 0 W/m² | - |
* Rain latest hour (hover to see other rain measurements)
** Current wind speed in m/s (hover to see current wind gust speed)